Location: Unspecified
(0.0000°N, 0.0000°E)
Time: 02:45:44
(UTC+00:00)

Explorer 7 - Pass Details

Date: 27 October 2021
Orbit: 483 x 675 km, 50.3° (Epoch: 27 November)

Event Time Altitude Azimuth Distance (km) Brightness Sun altitude
Exits shadow 03:52:16 14° 18° (NNE) 1,851 9.5 -27.2°
Maximum altitude 03:54:38 19° 53° (NE) 1,593 9.5 -26.6°
Drops below altitude 10° 03:58:01 10° 97° (E) 2,100 10.8 -25.8°
Sets 04:00:59 0° 115° (ESE) 3,009 11.9 -25.0°
